Simultaneous Nadir Overpasses (SNOs) Predictions

Prediction of SNOs between GOES-16 and NOAA-19 Satellite Orbit:

Table of predicted SNOs for the next 14.0 days since TLE Epoch: 7/27/2024
Index Date Time (GOES-16) GOES-16 Lat,Lon NOAA-19 Lat,Lon Distance(km) Time Diff (sec)
1 07/28/2024 02:06:35 0.00, -75.20 0.89, -71.38 436.29 80
2 07/29/2024 14:35:32 -0.01, -75.22 0.88, -78.97 428.98 80
3 07/30/2024 14:23:13 -0.00, -75.22 0.20, -75.97 86.39 80
4 07/31/2024 14:13:34 0.00, -75.23 -0.49, -72.98 256.39 80
5 08/03/2024 02:30:22 0.01, -75.24 -0.56, -77.62 271.42 80
6 08/04/2024 02:20:44 0.01, -75.26 0.17, -74.63 71.68 80
7 08/05/2024 02:08:24 0.02, -75.27 0.86, -71.64 414.91 80
8 08/06/2024 14:37:20 -0.03, -75.30 0.88, -79.22 447.26 80
9 08/07/2024 14:25:00 -0.03, -75.32 0.18, -76.23 103.05 80
10 08/08/2024 14:15:21 -0.03, -75.34 -0.52, -73.23 241.37 80
